Regional Weather Roundup
Issued by NWS

Home | Current Version | Previous Version | Graphics & Text | Print | Product List | Glossary On
Versions: 1 2 3 4 5 6 7 8 9 10 11 12 13 14 15 16 17 18 19 20 21 22 23 24 25 26 27 28 29 30 31 32 33 34 35 36 37 38 39 40 41 42 43 44 45 46 47 48 49 50
000
ASUS43 KFSD 162102
RWRSD

WEATHER ROUNDUP FOR SOUTH DAKOTA
NATIONAL WEATHER SERVICE SIOUX FALLS SD
300 PM CST MON JAN 16 2017

NOTE: "FAIR" INDICATES FEW OR NO CLOUDS BELOW 12,000 FEET WITH NO
SIGNIFICANT WEATHER AND/OR OBSTRUCTIONS TO VISIBILITY.


SDZ001>005-009-010-012>017-162200-
NORTHWEST AND NORTH CENTRAL SOUTH DAKOTA

CITY           SKY/WX    TMP DP  RH WIND       PRES   REMARKS
BUFFALO          N/A     27  17  66 NW16      29.99S WCI  15
FAITH            N/A     21  16  81 NW13      30.04S WCI   9
MOBRIDGE       SUNNY     20   9  62 NW7       30.03S WCI  11
$$

SDZ012>016-024>037-041>051-057-063-072>074-162200-
SOUTHWEST AND SOUTH CENTRAL SOUTH DAKOTA

CITY           SKY/WX    TMP DP  RH WIND       PRES   REMARKS
RAPID CTY ARPT SUNNY     34  20  56 N20       30.04S WCI  23
PIERRE         CLOUDY    22  13  68 NW17      30.05S WCI   8
CUSTER         SUNNY     41   8  25 CALM      30.00S
ELLSWORTH AFB  SUNNY     33  18  54 N21       30.03S WCI  21
PHILIP         SUNNY     30  20  66 W9        30.06F WCI  22
PINE RIDGE     SUNNY     31  21  66 W6        30.06F WCI  25
SPEARFISH      FAIR      36  18  48 NW12      30.07R
WINNER         FAIR      32  15  49 NW14      30.03F WCI  22
$$

SDZ004>011-016>023-039-040-162200-
NORTHEAST SOUTH DAKOTA

CITY           SKY/WX    TMP DP  RH WIND       PRES   REMARKS
ABERDEEN       CLOUDY    23   8  52 CALM      30.03F
WATERTOWN      CLOUDY    26  19  74 NW5       29.98F WCI  20
BROOKINGS      CLOUDY    32  23  69 N3        29.97F
SISSETON         N/A     25  21  85 E5        30.02F WCI  19
$$

SDZ017-020-022-023-036>040-048>070-162200-
SOUTHEAST SOUTH DAKOTA

CITY           SKY/WX    TMP DP  RH WIND       PRES   REMARKS
SIOUX FALLS    FRZ RAIN  31  27  85 N7        29.98S WCI  24
HURON          CLOUDY    20  12  71 NW10      30.03S WCI   9
CHAMBERLAIN    CLOUDY    26  15  63 W10       30.04S WCI  16
MITCHELL       PTSUNNY   27  20  75 NW9       30.03F WCI  18
YANKTON        CLOUDY    30  28  93 CALM      29.98S
$$

ABBREVIATIONS USED IN REMARKS
   TC - TEMPERATURE IN CELSIUS
  WCI - WIND CHILL INDEX
   HX - HEAT INDEX
  VSB - VISIBILITY





USA.gov is the U.S. government's official web portal to all federal, state and local government web resources and services.